Regional Weather Roundup
Issued by NWS Boston, MA

Home | Current Version | Previous Version | Text Only | Print | Product List | Glossary On
Versions: 1 2 3 4 5 6 7 8 9 10 11 12 13 14 15 16 17 18 19 20 21 22 23 24 25 26 27 28 29 30 31 32 33 34 35 36 37 38 39 40 41 42 43 44 45 46 47 48 49 50
000
ASUS41 KBOX 222210
RWRBOX

REGIONAL WEATHER ROUNDUP
NATIONAL WEATHER SERVICE TAUNTON MA
500 PM EST MON DEC 22 2014

NOTE:  "FAIR" INDICATES FEW OR NO CLOUDS BELOW 12,000 FEET WITH NO
SIGNIFICANT WEATHER AND/OR OBSTRUCTIONS TO VISIBILITY.  THE FOLLOWING
OBSERVATION LOCATIONS DO NOT REPORT PRESENT WEATHER...PROVINCETOWN...
SMITHFIELD...BLOCK ISLAND...KEENE...AND OXFORD.

MAZALL-222300-
EASTERN MASSACHUSETTS

CITY           SKY/WX    TMP DP  RH WIND       PRES   REMARKS
BOSTON         LGT RAIN  41  39  93 NE6       30.33S FOG
BEVERLY        LGT RAIN  39  37  92 N5        30.33R
LAWRENCE       LGT RAIN  37  36  96 NE6       30.36R FOG
BEDFORD        LGT RAIN  38  37  97 NE6       30.32R FOG
BLUE HILL        N/A     39  38  96 E8        30.29S
NORWOOD        CLOUDY    41  39  93 CALM      30.32S
MARSHFIELD     MOCLDY    45  39  81 SE5       30.34S
PLYMOUTH       LGT RAIN  42  39  89 E5        30.32R
TAUNTON        LGT RAIN  44  39  82 NE3       30.31S
NEW BEDFORD    CLOUDY    44  39  82 E7        30.30S
$$

MAZALL-222300-
CAPE COD AND THE ISLANDS

CITY           SKY/WX    TMP DP  RH WIND       PRES   REMARKS
FALMOUTH       CLOUDY    45  39  81 E7        30.31R
HYANNIS        CLOUDY    45  37  73 E8        30.29F
CHATHAM        CLOUDY    44  36  73 E10G21    30.32S
PROVINCETOWN   CLOUDY    43  36  75 E8        30.33S
NANTUCKET      PTCLDY    44  37  76 E10       30.30S
MARTHAS VNYRD  MOCLDY    42  38  85 E6        30.30S
$$

MAZALL-222300-
CENTRAL AND WESTERN MASSACHUSETTS

CITY           SKY/WX    TMP DP  RH WIND       PRES   REMARKS
WORCESTER      LGT SNOW  33  33 100 NE5       30.29S FOG     WCI  29
FITCHBURG      LGT RAIN  37  31  78 N5        30.33S
ORANGE         CLOUDY    37  32  82 E3        30.31R
SPRINGFIELD    CLOUDY    41  34  75 E5        30.29R
WESTFIELD      CLOUDY    38  32  79 NE7       30.29R
NORTH ADAMS    CLOUDY    36  31  82 E8        30.27R WCI  30
PITTSFIELD     CLOUDY    35  31  85 E5        30.23F WCI  31
$$

RIZALL-222300-
RHODE ISLAND

CITY           SKY/WX    TMP DP  RH WIND       PRES   REMARKS
PROVIDENCE     CLOUDY    42  40  92 CALM      30.32R
NEWPORT        CLOUDY    43  38  82 E9        30.30R
BLOCK ISLAND   CLOUDY    45  37  76 E14       30.27S
SMITHFIELD     CLOUDY    39  34  81 NE5       30.30S
WESTERLY       CLOUDY    44  38  79 NE8       30.29R
$$

CTZALL-222300-
CONNECTICUT

CITY           SKY/WX    TMP DP  RH WIND       PRES   REMARKS
BRADLEY INTL   CLOUDY    40  33  76 N7        30.27S
HARTFORD       CLOUDY    42  34  73 VRB6      30.28S
BRIDGEPORT     CLOUDY    44  41  89 E15       30.26R
DANBURY        CLOUDY    40  33  76 E6        30.26R
GROTON         CLOUDY    43  38  82 E10       30.28R
NEW HAVEN      CLOUDY    46  37  71 NE6       30.27R
CHESTER        CLOUDY    43  37  81 E6        30.27R
MERIDEN        CLOUDY    41  34  76 CALM      30.28R
WILLIMANTIC    CLOUDY    42  35  76 E6        30.29S
OXFORD         CLOUDY    37  30  75 E3        30.26R
$$

MEZ002-015-021-024-NHZ003-005-008-011-012-014-VTZ005-008-222300-
NORTHERN NEW ENGLAND

CITY           SKY/WX    TMP DP  RH WIND       PRES   REMARKS
PORTLAND ME    CLOUDY    37  29  72 N6        30.36F
BANGOR ME      CLOUDY    33  29  85 CALM      30.41S
CONCORD NH     CLOUDY    36  30  79 E3        30.34R
MANCHESTER NH  CLOUDY    37  32  82 N3        30.33R
NASHUA NH      CLOUDY    37  34  89 CALM      30.35R FOG
PORTSMOUTH NH  DRIZZLE   38  34  87 N5        30.34R
JAFFREY NH     CLOUDY    33  31  92 CALM      30.30R
KEENE NH       CLOUDY    37  30  75 CALM      30.32R
BURLINGTON VT  CLOUDY    26  21  81 CALM      30.31S
MT. WASHINGTON FOG       16  16 100 SW18G26     N/A  VSB 1/16WCI  -1
$$

NYZ052-076-222300-
EASTERN NEW YORK

CITY           SKY/WX    TMP DP  RH WIND       PRES   REMARKS
ALBANY         FLURRIES  35  27  72 NE5       30.28S WCI  31
NEW YORK CITY  DRIZZLE   42  39  89 NE7       30.22F
$$

ANZALL-222300-
MARINE OBSERVATIONS

STATION/POSITION TIME  TEMP    WIND        PRES    VSBY  WAVE
                       AIR SEA DIR/SP/G                  HT/PER
                 (UTC) (F)     (DEG/KT/KT) (MB)    (MI)  (FT/S)
BOSTON BUOY      2150   43 46   90/  8/ 12 1027.3R         3/ 7
BUZZARDS BAY     2100           80/ 14/ 16 1026.2F
NANTUCKET SOUND  2150   45 45   90/ 16/ 19 1025.5F         2/ 4
MASS BAY-STELLWA 2104   42 43   80/  8/ 10   N/A    1 7/8  3/ 8
ISLE OF SHOALS   2200   43     100/ 10/ 11 1026.6R
S OF BLOCK IS    2108      51                N/A           4/ 4
$$

......................KEY.........................
  SKY/WX - SKY CONDITION/PRESENT WEATHER
  TMP    - TEMPERATURE IN FAHRENHEIT
  DWPT   - DEWPOINT IN FAHRENHEIT
  RH     - RELATIVE HUMIDITY IN PERCENT
  WIND   - DIRECTION AND SPEED IN MPH
  PRES   - MEAN SEA LEVEL PRESSURE IN INCHES OF HG
  WCI    - WIND CHILL INDEX
  VSB    - VISIBILITY IN MILES
  HX     - HEAT INDEX
  TC     - TEMPERATURE IN CELSIUS
  VRB    - VARIABLE WIND DIRECTION
  N/A    - NOT AVAILABLE


USA.gov is the U.S. government's official web portal to all federal, state and local government web resources and services.